Location: Beccas
(43.4309°N, 0.1528°E)
Time: 23:07:22
(UTC+00:00)

CZ-4 R/B - Pass Details

Date: 15 October 2021
Orbit: 531 x 595 km, 97.8° (Epoch: 26 November)

Event Time Altitude Azimuth Distance (km) Brightness Sun altitude
Rises 19:37:57 0° 199° (SSW) 2,693 4.9 -26.4°
Reaches altitude 10° 19:40:26 10° 215° (SW) 1,817 4.2 -26.8°
Maximum altitude 19:43:29 22° 266° (W) 1,253 3.8 -27.4°
Drops below altitude 10° 19:46:37 10° 318° (NW) 1,858 4.7 -27.9°
Sets 19:49:11 0° 334° (NNW) 2,773 5.5 -28.4°
